This is the latest recevied weather packets stored in our database for station/object WB6ANP. If no packets are shown the sender has not sent any weather packets the latest 10 day(s).
| Time | Temp. | Humidity | Pressure | Rain* | Wind** | Luminosity | Snow |
|---|---|---|---|---|---|---|---|
| 1777141347 | 29.44° C | 66% | 1006.2 hPa | 0 mm | - | 911 W/m² | - |
| 1777141043 | 28.89° C | 63% | 1006.3 hPa | 0 mm | - | 902 W/m² | - |
| 1777140741 | 28.89° C | 64% | 1006.6 hPa | 0 mm | - | 924 W/m² | - |
| 1777140437 | 28.89° C | 63% | 1006.4 hPa | 0 mm | - | 911 W/m² | - |
| 1777140135 | 28.89° C | 65% | 1006.8 hPa | 0 mm | - | 927 W/m² | - |
| 1777139833 | 28.89° C | 64% | 1006.8 hPa | 0 mm | - | 898 W/m² | - |
| 1777139529 | 28.89° C | 65% | 1006.8 hPa | 0 mm | - | 910 W/m² | - |
| 1777139229 | 28.33° C | 66% | 1006.7 hPa | 0 mm | - | 900 W/m² | - |
| 1777138927 | 28.33° C | 67% | 1006.8 hPa | 0 mm | - | 900 W/m² | - |
| 1777138623 | 28.33° C | 67% | 1007.1 hPa | 0 mm | - | 904 W/m² | - |
| 1777138318 | 28.33° C | 67% | 1007.2 hPa | 0 mm | - | 772 W/m² | - |
| 1777138015 | 28.33° C | 67% | 1007.2 hPa | 0 mm | - | 929 W/m² | - |
| 1777137711 | 28.33° C | 66% | 1007.2 hPa | 0 mm | - | 892 W/m² | - |
| 1777137407 | 28.33° C | 67% | 1007.3 hPa | 0 mm | - | 888 W/m² | - |
| 1777137104 | 27.78° C | 67% | 1007.5 hPa | 0 mm | - | 892 W/m² | - |
| 1777136801 | 27.78° C | 67% | 1007.5 hPa | 0 mm | - | 887 W/m² | - |
| 1777136498 | 27.78° C | 67% | 1007.4 hPa | 0 mm | - | 887 W/m² | - |
| 1777136195 | 27.78° C | 67% | 1007.5 hPa | 0 mm | - | 852 W/m² | - |
| 1777135892 | 27.22° C | 68% | 1007.5 hPa | 0 mm | - | 858 W/m² | - |
| 1777135587 | 27.22° C | 68% | 1007.6 hPa | 0 mm | - | 854 W/m² | - |
| 1777135284 | 27.22° C | 69% | 1007.5 hPa | 0 mm | - | 839 W/m² | - |
| 1777134981 | 26.67° C | 71% | 1007.5 hPa | 0 mm | - | 782 W/m² | - |
| 1777134679 | 26.67° C | 73% | 1007.5 hPa | 0 mm | - | 825 W/m² | - |
| 1777134374 | 26.67° C | 74% | 1007.6 hPa | 0 mm | - | 595 W/m² | - |
| 1777134071 | 26.11° C | 76% | 1007.5 hPa | 0 mm | - | 318 W/m² | - |
* Rain latest hour (hover to see other rain measurements)
** Current wind speed in m/s (hover to see current wind gust speed)